| time (UTC) | temp F | wind direction | speed MPH | gust MPH | rain 1hr in | rain 24hr in | rain mn in | humidity % | barometer mb |
| 20260505173332 | 58 | 36 | 4.0 | 10.0 | 0.00 | 0.18 | 0.04 | 85 | 1007.0 |
| 20260505172332 | 58 | 5 | 3.0 | 5.0 | 0.00 | 0.18 | 0.04 | 85 | 1007.0 |
| 20260505171332 | 58 | 26 | 3.0 | 7.0 | 0.00 | 0.18 | 0.04 | 85 | 1007.1 |
| 20260505170333 | 59 | 338 | 3.0 | 9.0 | 0.00 | 0.18 | 0.04 | 85 | 1007.1 |
| 20260505165333 | 59 | 279 | 4.0 | 12.0 | 0.00 | 0.18 | 0.04 | 84 | 1007.1 |
| 20260505164333 | 59 | 254 | 5.0 | 8.0 | 0.00 | 0.18 | 0.04 | 85 | 1007.2 |
| 20260505163333 | 59 | 329 | 5.0 | 11.0 | 0.00 | 0.18 | 0.04 | 84 | 1007.3 |
| 20260505162333 | 59 | 349 | 5.0 | 11.0 | 0.00 | 0.18 | 0.04 | 84 | 1007.4 |
| 20260505161333 | 59 | 311 | 4.0 | 10.0 | 0.00 | 0.18 | 0.04 | 84 | 1007.4 |
| 20260505160333 | 60 | 302 | 5.0 | 14.0 | 0.00 | 0.18 | 0.04 | 84 | 1007.3 |
| 20260505153333 | 60 | 108 | 5.0 | 10.0 | 0.00 | 0.18 | 0.04 | 84 | 1007.5 |
| 20260505152333 | 60 | 341 | 5.0 | 11.0 | 0.00 | 0.18 | 0.04 | 84 | 1007.6 |
| 20260505151333 | 60 | 19 | 5.0 | 10.0 | 0.00 | 0.18 | 0.04 | 83 | 1007.6 |
| 20260505150333 | 61 | 24 | 5.0 | 11.0 | 0.00 | 0.18 | 0.04 | 83 | 1007.6 |
| 20260505140333 | 63 | 338 | 6.0 | 11.0 | 0.00 | 0.18 | 0.04 | 80 | 1007.9 |
| 20260505124333 | 64 | 296 | 4.0 | 8.0 | 0.00 | 0.18 | 0.04 | 75 | 1008.2 |
| 20260505123333 | 64 | 331 | 4.0 | 8.0 | 0.00 | 0.18 | 0.04 | 76 | 1008.4 |
| 20260505122333 | 64 | 350 | 3.0 | 6.0 | 0.00 | 0.18 | 0.04 | 74 | 1008.4 |
| 20260505121333 | 63 | 319 | 4.0 | 8.0 | 0.00 | 0.18 | 0.04 | 75 | 1008.5 |
| 20260505120333 | 63 | 292 | 3.0 | 10.0 | 0.00 | 0.18 | 0.04 | 76 | 1008.6 |
| 20260505115333 | 63 | 326 | 4.0 | 9.0 | 0.00 | 0.18 | 0.04 | 77 | 1008.7 |
| 20260505114333 | 63 | 319 | 3.0 | 9.0 | 0.00 | 0.18 | 0.04 | 77 | 1008.6 |
| 20260505113333 | 63 | 315 | 3.0 | 7.0 | 0.00 | 0.18 | 0.04 | 80 | 1008.8 |
| 20260505112333 | 62 | 336 | 4.0 | 8.0 | 0.00 | 0.18 | 0.04 | 78 | 1008.9 |
| 20260505111333 | 62 | 316 | 3.0 | 5.0 | 0.00 | 0.18 | 0.04 | 78 | 1008.9 |
| 20260505110333 | 62 | 338 | 3.0 | 5.0 | 0.00 | 0.18 | 0.04 | 80 | 1009.0 |
| 20260505101333 | 60 | 289 | 0.0 | 1.0 | 0.00 | 0.18 | 0.04 | 85 | 1009.5 |
| 20260505100333 | 59 | 290 | 1.0 | 3.0 | 0.00 | 0.18 | 0.04 | 85 | 1009.6 |
| 20260505095333 | 59 | 284 | 1.0 | 3.0 | 0.00 | 0.18 | 0.04 | 84 | 1009.6 |
| 20260505094334 | 58 | 281 | 0.0 | 0.0 | 0.00 | 0.18 | 0.04 | 83 | 1009.5 |
| 20260505093333 | 58 | 281 | 0.0 | 0.0 | 0.00 | 0.18 | 0.04 | 82 | 1009.6 |
| 20260505092334 | 58 | 281 | 2.0 | 3.0 | 0.00 | 0.18 | 0.04 | 81 | 1009.7 |
| 20260505091334 | 58 | 333 | 0.0 | 0.0 | 0.00 | 0.18 | 0.04 | 80 | 1009.7 |
| 20260505090334 | 57 | 335 | 0.0 | 0.0 | 0.00 | 0.18 | 0.04 | 79 | 1009.7 |
| 20260505085334 | 57 | 67 | 0.0 | 0.0 | 0.00 | 0.18 | 0.04 | 79 | 1009.7 |
| 20260505084334 | 57 | 67 | 0.0 | 0.0 | 0.00 | 0.18 | 0.04 | 79 | 1009.7 |
| 20260505083334 | 57 | 67 | 0.0 | 0.0 | 0.00 | 0.18 | 0.04 | 78 | 1009.6 |
| 20260505082334 | 56 | 67 | 0.0 | 0.0 | 0.00 | 0.18 | 0.04 | 79 | 1009.6 |
| 20260505081334 | 56 | 67 | 0.0 | 0.0 | 0.00 | 0.18 | 0.04 | 79 | 1009.7 |
| 20260505080334 | 56 | 67 | 0.0 | 0.0 | 0.00 | 0.18 | 0.04 | 78 | 1009.8 |
| 20260505075334 | 56 | 67 | 0.0 | 0.0 | 0.00 | 0.18 | 0.04 | 78 | 1009.9 |
| 20260505074334 | 56 | 67 | 0.0 | 0.0 | 0.00 | 0.18 | 0.04 | 79 | 1009.8 |
| 20260505073334 | 56 | 67 | 0.0 | 0.0 | 0.00 | 0.18 | 0.04 | 78 | 1009.9 |
| 20260505072334 | 56 | 68 | 0.0 | 0.0 | 0.01 | 0.18 | 0.04 | 78 | 1009.9 |
| 20260505071334 | 56 | 68 | 0.0 | 0.0 | 0.01 | 0.18 | 0.04 | 78 | 1010.0 |
| 20260505070334 | 56 | 69 | 0.0 | 0.0 | 0.01 | 0.18 | 0.04 | 78 | 1009.9 |
| 20260505065334 | 55 | 69 | 1.0 | 1.0 | 0.01 | 0.18 | 0.04 | 78 | 1010.0 |
| 20260505064334 | 55 | 69 | 0.0 | 3.0 | 0.01 | 0.18 | 0.04 | 78 | 1009.8 |
| 20260505063334 | 55 | 70 | 0.0 | 0.0 | 0.01 | 0.18 | 0.04 | 78 | 1010.0 |
| 20260505062334 | 55 | 70 | 0.0 | 0.0 | 0.00 | 0.17 | 0.03 | 79 | 1010.1 |
| 20260505061334 | 55 | 70 | 1.0 | 1.0 | 0.00 | 0.17 | 0.03 | 79 | 1010.2 |
| 20260505060334 | 55 | 70 | 0.0 | 3.0 | 0.00 | 0.17 | 0.03 | 79 | 1010.3 |
| 20260505055334 | 55 | 61 | 0.0 | 0.0 | 0.01 | 0.17 | 0.03 | 79 | 1010.4 |
| 20260505054334 | 55 | 61 | 0.0 | 0.0 | 0.01 | 0.17 | 0.03 | 78 | 1010.4 |
| 20260505053334 | 55 | 61 | 0.0 | 0.0 | 0.01 | 0.17 | 0.03 | 78 | 1010.4 |
| 20260505052334 | 55 | 61 | 0.0 | 0.0 | 0.02 | 0.17 | 0.03 | 78 | 1010.3 |
| 20260505051334 | 54 | 61 | 0.0 | 0.0 | 0.02 | 0.17 | 0.03 | 78 | 1010.3 |
| 20260505050334 | 54 | 61 | 0.0 | 0.0 | 0.02 | 0.17 | 0.03 | 79 | 1010.2 |
| 20260505041334 | 55 | 61 | 0.0 | 0.0 | 0.00 | 0.15 | 0.01 | 79 | 1010.4 |
| 20260505040334 | 55 | 61 | 0.0 | 0.0 | 0.00 | 0.15 | 0.01 | 79 | 1010.5 |
| 20260505035334 | 55 | 61 | 0.0 | 0.0 | 0.00 | 0.15 | 0.01 | 79 | 1010.6 |
| 20260505034334 | 55 | 61 | 0.0 | 0.0 | 0.00 | 0.15 | 0.01 | 79 | 1010.6 |
| 20260505033334 | 55 | 61 | 0.0 | 0.0 | 0.00 | 0.15 | 0.01 | 79 | 1010.6 |
| 20260505032334 | 55 | 61 | 0.0 | 0.0 | 0.00 | 0.15 | 0.01 | 79 | 1010.6 |
| 20260505031334 | 55 | 61 | 0.0 | 0.0 | 0.00 | 0.15 | 0.01 | 79 | 1010.7 |
| 20260505030334 | 55 | 61 | 0.0 | 0.0 | 0.00 | 0.15 | 0.01 | 79 | 1010.6 |
| 20260505025334 | 55 | 61 | 0.0 | 0.0 | 0.00 | 0.15 | 0.01 | 79 | 1010.8 |
| 20260505024334 | 55 | 61 | 0.0 | 0.0 | 0.00 | 0.15 | 0.01 | 79 | 1010.9 |
| 20260505023334 | 55 | 61 | 0.0 | 0.0 | 0.00 | 0.15 | 0.01 | 79 | 1010.9 |
| 20260505022334 | 55 | 61 | 0.0 | 0.0 | 0.00 | 0.15 | 0.01 | 79 | 1011.0 |
| 20260505021334 | 55 | 61 | 0.0 | 0.0 | 0.00 | 0.15 | 0.01 | 79 | 1011.1 |
| 20260505020335 | 55 | 61 | 0.0 | 0.0 | 0.00 | 0.15 | 0.01 | 79 | 1011.0 |
| 20260505015335 | 55 | 61 | 0.0 | 0.0 | 0.00 | 0.15 | 0.01 | 78 | 1011.1 |
| 20260505014335 | 55 | 61 | 0.0 | 0.0 | 0.00 | 0.15 | 0.01 | 79 | 1011.1 |
| 20260505013335 | 55 | 61 | 0.0 | 0.0 | 0.00 | 0.15 | 0.01 | 79 | 1011.1 |
| 20260505012335 | 55 | 61 | 0.0 | 0.0 | 0.00 | 0.15 | 0.01 | 79 | 1011.2 |
| 20260505011335 | 55 | 61 | 0.0 | 0.0 | 0.00 | 0.15 | 0.01 | 79 | 1011.3 |
| 20260505010335 | 55 | 61 | 0.0 | 0.0 | 0.00 | 0.15 | 0.01 | 79 | 1011.4 |
| 20260505005335 | 55 | 61 | 0.0 | 0.0 | 0.00 | 0.15 | 0.01 | 79 | 1011.4 |
| 20260505004335 | 55 | 61 | 0.0 | 0.0 | 0.00 | 0.15 | 0.01 | 79 | 1011.4 |
| 20260505003335 | 55 | 61 | 0.0 | 0.0 | 0.01 | 0.15 | 0.01 | 79 | 1011.4 |
| 20260505002335 | 55 | 61 | 0.0 | 0.0 | 0.01 | 0.15 | 0.01 | 79 | 1011.6 |
| 20260505001335 | 55 | 61 | 0.0 | 0.0 | 0.01 | 0.15 | 0.01 | 79 | 1011.7 |
| 20260505000335 | 55 | 61 | 1.0 | 0.0 | 0.01 | 0.15 | 0.01 | 79 | 1011.6 |
| 20260504235335 | 55 | 61 | 2.0 | 5.0 | 0.01 | 0.15 | 0.01 | 80 | 1011.5 |
| 20260504234335 | 55 | 41 | 3.0 | 5.0 | 0.01 | 0.15 | 0.01 | 80 | 1011.5 |
| 20260504233335 | 55 | 65 | 0.0 | 4.0 | 0.00 | 0.14 | 0.00 | 80 | 1011.9 |
| 20260504232335 | 55 | 93 | 0.0 | 0.0 | 0.00 | 0.14 | 0.00 | 80 | 1012.0 |
| 20260504231335 | 55 | 93 | 0.0 | 0.0 | 0.00 | 0.14 | 0.00 | 80 | 1012.3 |
| 20260504230335 | 55 | 93 | 0.0 | 0.0 | 0.00 | 0.14 | 0.00 | 80 | 1012.4 |
| 20260504225335 | 55 | 93 | 0.0 | 0.0 | 0.00 | 0.14 | 0.00 | 80 | 1012.5 |
| 20260504224335 | 55 | 93 | 0.0 | 0.0 | 0.00 | 0.14 | 0.00 | 80 | 1012.6 |
| 20260504223335 | 55 | 93 | 0.0 | 0.0 | 0.00 | 0.14 | 0.00 | 80 | 1012.6 |
| 20260504222335 | 55 | 93 | 0.0 | 0.0 | 0.00 | 0.14 | 0.00 | 80 | 1012.6 |
| 20260504221335 | 55 | 93 | 0.0 | 1.0 | 0.00 | 0.14 | 0.14 | 80 | 1012.6 |
| 20260504220335 | 55 | 93 | 0.0 | 0.0 | 0.00 | 0.14 | 0.14 | 81 | 1012.6 |
| 20260504215335 | 55 | 93 | 0.0 | 0.0 | 0.00 | 0.14 | 0.14 | 80 | 1012.6 |
| 20260504214335 | 55 | 93 | 0.0 | 0.0 | 0.00 | 0.14 | 0.14 | 81 | 1012.7 |
| 20260504213335 | 56 | 93 | 0.0 | 0.0 | 0.00 | 0.14 | 0.14 | 81 | 1012.7 |
| 20260504212335 | 56 | 93 | 1.0 | 2.0 | 0.00 | 0.14 | 0.14 | 81 | 1012.8 |
| 20260504211335 | 56 | 107 | 0.0 | 2.0 | 0.01 | 0.14 | 0.14 | 81 | 1012.8 |
| 20260504210335 | 56 | 107 | 0.0 | 2.0 | 0.02 | 0.14 | 0.14 | 81 | 1013.0 |
| 20260504205335 | 56 | 107 | 0.0 | 0.0 | 0.03 | 0.14 | 0.14 | 81 | 1013.2 |
| 20260504204335 | 56 | 107 | 0.0 | 0.0 | 0.06 | 0.14 | 0.14 | 81 | 1013.3 |
| 20260504203335 | 56 | 107 | 0.0 | 0.0 | 0.07 | 0.14 | 0.14 | 81 | 1013.6 |
| 20260504202335 | 56 | 107 | 0.0 | 1.0 | 0.10 | 0.14 | 0.14 | 81 | 1013.5 |
| 20260504201335 | 57 | 106 | 0.0 | 1.0 | 0.13 | 0.13 | 0.13 | 82 | 1013.3 |
| 20260504200335 | 57 | 106 | 0.0 | 1.0 | 0.12 | 0.12 | 0.12 | 82 | 1013.2 |
| 20260504195335 | 57 | 106 | 1.0 | 2.0 | 0.11 | 0.11 | 0.11 | 82 | 1013.3 |
| 20260504194335 | 57 | 106 | 0.0 | 1.0 | 0.09 | 0.09 | 0.09 | 82 | 1013.2 |
| 20260504193335 | 57 | 106 | 0.0 | 0.0 | 0.07 | 0.07 | 0.07 | 82 | 1013.0 |
| 20260504192335 | 57 | 106 | 0.0 | 0.0 | 0.04 | 0.04 | 0.04 | 82 | 1013.0 |
| 20260504191335 | 58 | 106 | 0.0 | 0.0 | 0.01 | 0.01 | 0.01 | 83 | 1013.0 |
| 20260504190335 | 58 | 106 | 0.0 | 2.0 | 0.00 | 0.00 | 0.00 | 83 | 1013.0 |
| 20260504185335 | 58 | 106 | 1.0 | 2.0 | 0.00 | 0.00 | 0.00 | 84 | 1013.1 |
| 20260504184335 | 59 | 233 | 0.0 | 2.0 | 0.00 | 0.00 | 0.00 | 84 | 1013.1 |
| 20260504183336 | 59 | 233 | 1.0 | 2.0 | 0.00 | 0.00 | 0.00 | 85 | 1013.2 |
| 20260504182336 | 60 | 236 | 2.0 | 4.0 | 0.00 | 0.00 | 0.00 | 84 | 1012.9 |
| 20260504181336 | 61 | 265 | 2.0 | 6.0 | 0.00 | 0.00 | 0.00 | 82 | 1012.7 |
| 20260504180336 | 61 | 230 | 4.0 | 6.0 | 0.00 | 0.00 | 0.00 | 78 | 1012.7 |
| 20260504175336 | 62 | 261 | 4.0 | 8.0 | 0.00 | 0.00 | 0.00 | 75 | 1012.3 |
| 20260504174336 | 63 | 327 | 4.0 | 9.0 | 0.00 | 0.00 | 0.00 | 75 | 1012.2 |